M I D A S
Marine Information and Data Acquisition System
Tripno 1247 of the Zeeleeuw from 2007-04-18 07:13:33 to 2007-04-18 10:57:47
Back to CruiseResearch ActivitiesStationsMapUnderway DataData graphs

EquipmentUnitsComment
TimeDGPSUTC
LatitudeDGPSDM.mWGS84
LongitudeDGPSDM.mWGS84
HeadingGyrodeg 
SOGDGPSknotsSpeed over ground
COGDGPSdegCourse over ground
DepthEcho soundermeters200 kHz
Missing or incorrect values are displayed as -999
Navigation data collected by the RV Zeeleeuw from 2007-04-18 07:13:55 to 2007-04-18 12:46:31
                                                                                    Next 1000 lines
Time Latitude Longitude Heading SOG COG Depth
2007-04-18 07:14:05 51°13.582 2°56.128 118.2 1.2 294 5.8
2007-04-18 07:14:10 51°13.583 2°56.125 118.5 1.7 294 5.8
2007-04-18 07:14:16 51°13.585 2°56.12 119.1 2.1 297 5.7
2007-04-18 07:14:21 51°13.586 2°56.115 119.7 2.4 297 -999
2007-04-18 07:14:26 51°13.588 2°56.11 120 2.7 297 -999
2007-04-18 07:14:31 51°13.59 2°56.104 120 3.1 298 -999
2007-04-18 07:14:36 51°13.592 2°56.097 119.7 3.4 298 -999
2007-04-18 07:14:41 51°13.594 2°56.09 119.6 3.5 299 -999
2007-04-18 07:14:46 51°13.597 2°56.083 119.1 3.5 297 -999
2007-04-18 07:14:51 51°13.599 2°56.077 118.5 3.5 298 -999
2007-04-18 07:14:56 51°13.601 2°56.07 117.8 3.5 296 -999
2007-04-18 07:15:00 51°13.603 2°56.064 117.3 3.5 296 -999
2007-04-18 07:15:06 51°13.605 2°56.055 117.1 3.6 296 -999
2007-04-18 07:15:11 51°13.607 2°56.048 117 3.6 297 -999
2007-04-18 07:15:16 51°13.609 2°56.041 117 3.6 295 -999
2007-04-18 07:15:21 51°13.611 2°56.034 117.3 3.6 295 -999
2007-04-18 07:15:25 51°13.614 2°56.028 117.6 3.7 297 -999
2007-04-18 07:15:31 51°13.616 2°56.019 117.9 3.7 297 -999
2007-04-18 07:15:36 51°13.618 2°56.012 118.3 3.6 296 -999
2007-04-18 07:15:41 51°13.62 2°56.005 118.8 3.7 296 -999
2007-04-18 07:15:45 51°13.622 2°55.999 119 3.7 297 -999
2007-04-18 07:15:51 51°13.625 2°55.99 119.3 3.7 296 -999
2007-04-18 07:15:56 51°13.628 2°55.983 119.6 3.7 297 -999
2007-04-18 07:16:01 51°13.63 2°55.975 119.8 3.8 297 -999
2007-04-18 07:16:06 51°13.632 2°55.968 120.2 3.8 298 -999
2007-04-18 07:16:10 51°13.634 2°55.962 120.4 3.9 297 -999
2007-04-18 07:16:16 51°13.637 2°55.953 120.5 3.9 298 -999
2007-04-18 07:16:21 51°13.64 2°55.945 120.7 4 297 -999
2007-04-18 07:16:26 51°13.642 2°55.937 120.7 4 298 -999
2007-04-18 07:16:31 51°13.644 2°55.929 120.6 4 298 -999
2007-04-18 07:16:36 51°13.647 2°55.922 120.2 4 297 -999
2007-04-18 07:16:41 51°13.65 2°55.914 119.7 3.9 298 -999
2007-04-18 07:16:46 51°13.652 2°55.907 118.9 3.8 296 -999
2007-04-18 07:16:51 51°13.654 2°55.899 118 3.7 297 -999
2007-04-18 07:16:55 51°13.656 2°55.893 116.9 3.7 296 -999
2007-04-18 07:17:01 51°13.659 2°55.885 115.8 3.5 295 8.2
2007-04-18 07:17:06 51°13.661 2°55.878 115 3.5 294 8.1
2007-04-18 07:17:10 51°13.662 2°55.872 114.2 2.1 293 8.1
2007-04-18 07:17:15 51°13.664 2°55.865 113.2 3.4 293 8.1
2007-04-18 07:17:21 51°13.666 2°55.857 112.3 3.4 291 8
2007-04-18 07:17:25 51°13.668 2°55.851 111 3.3 291 8
2007-04-18 07:17:30 51°13.669 2°55.845 109.6 3.2 289 8.1
2007-04-18 07:17:35 51°13.67 2°55.838 108.1 3.1 290 8.4
2007-04-18 07:17:41 51°13.672 2°55.831 106.6 2.9 287 8.5
2007-04-18 07:17:46 51°13.673 2°55.825 105.1 2.8 288 8.5
2007-04-18 07:17:50 51°13.674 2°55.82 103.4 2.7 285 8.5
2007-04-18 07:17:55 51°13.675 2°55.815 101.8 2.1 284 8.6
2007-04-18 07:18:01 51°13.676 2°55.809 100.4 2.1 284 8.6
2007-04-18 07:18:05 51°13.676 2°55.805 99 2.1 286 8.6
2007-04-18 07:18:11 51°13.677 2°55.8 97.2 1.8 285 8.6
2007-04-18 07:18:16 51°13.678 2°55.797 95.4 1.6 286 8.6
2007-04-18 07:18:21 51°13.678 2°55.794 93.5 1.4 284 8.7
2007-04-18 07:18:25 51°13.678 2°55.791 91.8 1.4 285 8.7
2007-04-18 07:18:30 51°13.679 2°55.789 90 1.3 283 8.6
2007-04-18 07:18:36 51°13.679 2°55.785 88.5 1.3 281 8.7
2007-04-18 07:18:41 51°13.68 2°55.783 87.2 1.2 282 8.8
2007-04-18 07:18:45 51°13.68 2°55.781 86.1 1.2 282 9
2007-04-18 07:18:50 51°13.68 2°55.778 84.9 1.1 280 9
2007-04-18 07:18:55 51°13.68 2°55.776 83.6 1 277 9
2007-04-18 07:19:01 51°13.68 2°55.774 82.4 1 279 9
2007-04-18 07:19:06 51°13.68 2°55.772 81.1 0.9 272 9.1
2007-04-18 07:19:10 51°13.68 2°55.77 79.7 0.9 272 9
2007-04-18 07:19:15 51°13.68 2°55.769 78.4 0.8 264 9
2007-04-18 07:19:21 51°13.68 2°55.766 77 0.8 267 9.1
2007-04-18 07:19:25 51°13.68 2°55.765 75.6 0.7 271 9.1
2007-04-18 07:19:30 51°13.681 2°55.763 74.2 0.7 277 9.1
2007-04-18 07:19:35 51°13.681 2°55.762 72.7 0.7 279 9.1
2007-04-18 07:19:41 51°13.681 2°55.76 71.2 0.7 283 9.1
2007-04-18 07:19:46 51°13.681 2°55.759 70 0.6 279 9.3
2007-04-18 07:19:50 51°13.681 2°55.758 68.6 0.5 280 9.3
2007-04-18 07:19:55 51°13.681 2°55.757 67.2 0.4 285 9.2
2007-04-18 07:20:01 51°13.681 2°55.757 65.6 0.3 299 9.1
2007-04-18 07:20:05 51°13.682 2°55.756 63.7 0.3 328 9.1
2007-04-18 07:20:10 51°13.682 2°55.756 61.5 0.4 344 9
2007-04-18 07:20:15 51°13.683 2°55.756 59.1 0.4 -999 8.9
2007-04-18 07:20:21 51°13.683 2°55.756 56.3 0.5 7 9.2
2007-04-18 07:20:25 51°13.684 2°55.757 53.6 0.5 13 9.6
2007-04-18 07:20:30 51°13.684 2°55.757 50.4 0.6 13 9.9
2007-04-18 07:20:36 51°13.685 2°55.757 47.2 0.6 16 10.4
2007-04-18 07:20:41 51°13.686 2°55.758 43.8 0.8 12 10.8
2007-04-18 07:20:45 51°13.687 2°55.758 40.2 0.8 11 11
2007-04-18 07:20:50 51°13.689 2°55.758 36.6 0.9 8 10.8
2007-04-18 07:20:55 51°13.69 2°55.759 32.9 1 7 10.5
2007-04-18 07:21:01 51°13.692 2°55.759 29.1 1.1 3 10.6
2007-04-18 07:21:06 51°13.693 2°55.759 25.3 1.1 1 10.7
2007-04-18 07:21:10 51°13.694 2°55.759 21.7 1.2 359 10.8
2007-04-18 07:21:15 51°13.696 2°55.759 17.9 1.2 357 11.2
2007-04-18 07:21:21 51°13.698 2°55.758 14.3 1.3 354 11.4
2007-04-18 07:21:25 51°13.699 2°55.758 10.7 1.4 351 12
2007-04-18 07:21:30 51°13.701 2°55.758 7.2 1.4 349 11.8
2007-04-18 07:21:35 51°13.703 2°55.757 3.8 1.5 346 11.9
2007-04-18 07:21:40 51°13.705 2°55.756 0.2 1.5 344 12
2007-04-18 07:21:46 51°13.708 2°55.755 356.8 1.6 341 11.6
2007-04-18 07:21:50 51°13.709 2°55.754 353.2 1.7 340 11.8
2007-04-18 07:21:55 51°13.712 2°55.752 349.8 1.8 338 11.3
2007-04-18 07:22:01 51°13.715 2°55.751 346.4 2 336 11.1
2007-04-18 07:22:05 51°13.717 2°55.749 343.2 2.2 334 10.9
2007-04-18 07:22:10 51°13.72 2°55.747 339.8 2.4 331 10.6
2007-04-18 07:22:15 51°13.723 2°55.744 336.7 2.7 331 10
2007-04-18 07:22:20 51°13.727 2°55.741 334.6 3 328 9.9
2007-04-18 07:22:25 51°13.73 2°55.737 333.2 3.2 328 9.7
2007-04-18 07:22:31 51°13.735 2°55.731 332.3 3.5 326 9.7
2007-04-18 07:22:36 51°13.739 2°55.726 331.3 3.7 326 9.7
2007-04-18 07:22:41 51°13.743 2°55.721 330.7 4 325 9.5
2007-04-18 07:22:45 51°13.747 2°55.717 330.2 4.2 326 9.2
2007-04-18 07:22:50 51°13.752 2°55.711 330.1 4.4 325 9.1
2007-04-18 07:22:55 51°13.758 2°55.706 330.1 4.5 326 9.1
2007-04-18 07:23:01 51°13.764 2°55.698 330.2 4.7 326 9.1
2007-04-18 07:23:05 51°13.769 2°55.694 330.5 4.8 326 9
2007-04-18 07:23:10 51°13.775 2°55.687 330.7 5 327 8.9
2007-04-18 07:23:16 51°13.783 2°55.68 330.9 5.2 328 9
2007-04-18 07:23:21 51°13.789 2°55.673 331.1 5.3 328 9.1
2007-04-18 07:23:25 51°13.794 2°55.669 331.6 5.3 330 8.9
2007-04-18 07:23:30 51°13.801 2°55.663 333.1 5.3 330 9
2007-04-18 07:23:35 51°13.808 2°55.657 334.7 5.5 333 9
2007-04-18 07:23:41 51°13.817 2°55.65 336 5.8 332 9
2007-04-18 07:23:45 51°13.822 2°55.645 336.1 5.8 333 9.1
2007-04-18 07:23:50 51°13.829 2°55.639 335.9 5.9 332 9.2
2007-04-18 07:23:55 51°13.837 2°55.633 335.8 6.1 333 9.1
2007-04-18 07:24:01 51°13.846 2°55.625 336 6.1 332 8.9
2007-04-18 07:24:06 51°13.854 2°55.619 336 6.2 333 -999
2007-04-18 07:24:11 51°13.861 2°55.612 336 6.2 332 -999
2007-04-18 07:24:15 51°13.868 2°55.607 336 6.4 332 8.9
2007-04-18 07:24:21 51°13.877 2°55.599 336 6.4 332 -999
2007-04-18 07:24:26 51°13.884 2°55.592 336.1 6.3 331 8.7
2007-04-18 07:24:31 51°13.892 2°55.585 336.1 6.3 331 -999
2007-04-18 07:24:36 51°13.9 2°55.579 336.2 6.5 332 -999
2007-04-18 07:24:41 51°13.909 2°55.572 336.6 6.7 332 8.7
2007-04-18 07:24:46 51°13.917 2°55.566 336.7 6.7 332 -999
2007-04-18 07:24:51 51°13.925 2°55.559 336.8 6.7 333 9
2007-04-18 07:24:56 51°13.933 2°55.552 336.7 6.8 333 9.3
2007-04-18 07:25:01 51°13.942 2°55.546 337 6.8 335 -999
2007-04-18 07:25:05 51°13.949 2°55.541 338.2 6.8 336 4.6
2007-04-18 07:25:11 51°13.959 2°55.534 338.9 6.7 337 9.5
2007-04-18 07:25:16 51°13.968 2°55.528 339.2 6.8 337 9.9
2007-04-18 07:25:21 51°13.977 2°55.523 339.8 6.8 338 9.8
2007-04-18 07:25:26 51°13.985 2°55.517 340.9 6.8 338 5.1
2007-04-18 07:25:30 51°13.992 2°55.512 342.4 6.8 338 5
2007-04-18 07:25:35 51°14.001 2°55.507 342.9 6.9 338 4.6
2007-04-18 07:25:41 51°14.012 2°55.5 343 7 339 6.6
2007-04-18 07:25:46 51°14.021 2°55.495 343 6.9 341 4.6
2007-04-18 07:25:50 51°14.028 2°55.492 344 6.9 344 9
2007-04-18 07:25:55 51°14.037 2°55.488 345.9 6.9 344 7.9
2007-04-18 07:26:01 51°14.048 2°55.482 346.6 6.9 345 6.8
2007-04-18 07:26:06 51°14.057 2°55.478 346.7 6.9 342 4.8
2007-04-18 07:26:10 51°14.064 2°55.474 345.9 6.8 341 4.5
2007-04-18 07:26:15 51°14.073 2°55.469 344.7 7 342 4.6
2007-04-18 07:26:21 51°14.084 2°55.464 343.9 6.9 343 4.7
2007-04-18 07:26:26 51°14.094 2°55.459 344.7 7 342 4.7
2007-04-18 07:26:30 51°14.101 2°55.456 344.8 6.9 344 4.7
2007-04-18 07:26:36 51°14.112 2°55.451 343.8 6.7 342 -999
2007-04-18 07:26:41 51°14.121 2°55.446 343.6 6.7 343 4.9
2007-04-18 07:26:45 51°14.128 2°55.442 343.6 6.6 337 4.6
2007-04-18 07:26:51 51°14.137 2°55.434 340.6 6.5 335 -999
2007-04-18 07:26:56 51°14.146 2°55.429 339.2 6.5 336 -999
2007-04-18 07:27:01 51°14.154 2°55.423 339.2 6.5 335 5.5
2007-04-18 07:27:06 51°14.162 2°55.417 339.2 6.5 335 9.4
2007-04-18 07:27:11 51°14.17 2°55.411 339 6.4 333 9.3
2007-04-18 07:27:15 51°14.176 2°55.405 338.2 6.5 332 9.4
2007-04-18 07:27:21 51°14.185 2°55.396 337 6.6 329 9.1
2007-04-18 07:27:25 51°14.191 2°55.39 335.6 6.5 329 4.7
2007-04-18 07:27:30 51°14.199 2°55.383 334.2 6.5 327 -999
2007-04-18 07:27:36 51°14.208 2°55.373 333 6.6 327 9.8
2007-04-18 07:27:41 51°14.216 2°55.365 331.9 6.6 326 9.6
2007-04-18 07:27:45 51°14.222 2°55.358 331 6.5 324 9.3
2007-04-18 07:27:50 51°14.229 2°55.349 329.6 6.5 324 9.3
2007-04-18 07:27:56 51°14.237 2°55.339 328.1 6.4 321 9.7
2007-04-18 07:28:01 51°14.243 2°55.33 325.8 6.3 319 9.6
2007-04-18 07:28:06 51°14.249 2°55.32 322.9 6.2 316 9.5
2007-04-18 07:28:10 51°14.254 2°55.312 319.9 6.3 314 9.7
2007-04-18 07:28:15 51°14.26 2°55.301 317.4 6.4 311 9.7
2007-04-18 07:28:21 51°14.267 2°55.288 315 6.5 310 9.8
2007-04-18 07:28:26 51°14.273 2°55.276 313 6.8 309 4.6
2007-04-18 07:28:30 51°14.277 2°55.267 312 7 308 9.8
2007-04-18 07:28:35 51°14.283 2°55.254 310.9 7.3 306 9.6
2007-04-18 07:28:41 51°14.291 2°55.238 309.7 7.5 305 9.6
2007-04-18 07:28:46 51°14.297 2°55.223 309 7.9 305 9.3
2007-04-18 07:28:51 51°14.304 2°55.208 308.7 8.4 306 9.4
2007-04-18 07:28:55 51°14.31 2°55.196 308.7 8.8 305 9.1
2007-04-18 07:29:01 51°14.319 2°55.176 308.4 9.2 305 9.1
2007-04-18 07:29:05 51°14.325 2°55.162 307.9 9.5 305 9.2
2007-04-18 07:29:11 51°14.334 2°55.141 307.9 9.7 304 9.1
2007-04-18 07:29:15 51°14.34 2°55.126 308 10 302 9.3
2007-04-18 07:29:21 51°14.348 2°55.102 306 10.2 300 9.2
2007-04-18 07:29:25 51°14.354 2°55.086 304.7 10.4 300 8.9
2007-04-18 07:29:31 51°14.363 2°55.062 303.8 10.5 300 9.1
2007-04-18 07:29:36 51°14.37 2°55.042 303.6 10.7 300 8.9
2007-04-18 07:29:41 51°14.377 2°55.021 303.5 10.7 298 8.6
2007-04-18 07:29:45 51°14.383 2°55.004 303.1 10.8 298 8.6
2007-04-18 07:29:50 51°14.39 2°54.982 302.5 10.9 297 8.9
2007-04-18 07:29:56 51°14.397 2°54.956 302 11 295 8.6
2007-04-18 07:30:01 51°14.403 2°54.934 301.3 11 292 8.9
2007-04-18 07:30:05 51°14.407 2°54.915 298.3 11 287 8.8
2007-04-18 07:30:10 51°14.411 2°54.891 295.2 11.2 284 8.9
2007-04-18 07:30:16 51°14.414 2°54.862 289.9 11.2 282 9.3
2007-04-18 07:30:21 51°14.417 2°54.837 287.1 11.3 280 9.4
2007-04-18 07:30:26 51°14.42 2°54.813 285 11.4 280 9.3
2007-04-18 07:30:30 51°14.421 2°54.793 284.4 11.5 279 9.1
2007-04-18 07:30:35 51°14.423 2°54.767 283.5 11.5 276 9.5
2007-04-18 07:30:41 51°14.425 2°54.737 281.4 11.6 275 9.2
2007-04-18 07:30:46 51°14.425 2°54.711 280.1 11.7 272 9.3
2007-04-18 07:30:50 51°14.426 2°54.69 278.6 11.7 271 8.9
2007-04-18 07:30:55 51°14.425 2°54.664 277.1 11.8 268 9.2
2007-04-18 07:31:01 51°14.425 2°54.633 275.1 11.8 269 9.6
2007-04-18 07:31:06 51°14.424 2°54.606 274.3 11.9 268 9.7
2007-04-18 07:31:11 51°14.423 2°54.58 274.1 11.9 267 8.9
2007-04-18 07:31:15 51°14.422 2°54.559 272.6 12.1 264 9.2
2007-04-18 07:31:21 51°14.419 2°54.527 270.3 12.3 262 9.2
2007-04-18 07:31:25 51°14.417 2°54.505 267.5 12.4 261 8.7
2007-04-18 07:31:30 51°14.414 2°54.478 265.5 12.7 259 9.3
2007-04-18 07:31:35 51°14.41 2°54.45 264.6 12.8 258 8.4
2007-04-18 07:31:41 51°14.405 2°54.417 263.9 12.9 255 7.7
2007-04-18 07:31:45 51°14.4 2°54.395 261 12.9 252 7.5
2007-04-18 07:31:50 51°14.394 2°54.368 257.7 12.9 250 5.5
2007-04-18 07:31:56 51°14.386 2°54.336 255.5 13 249 7.3
2007-04-18 07:32:01 51°14.378 2°54.31 253.6 13.1 245 7.3
2007-04-18 07:32:05 51°14.372 2°54.289 250.2 13.1 244 7.2
2007-04-18 07:32:10 51°14.364 2°54.263 247.9 13.1 243 5.4
2007-04-18 07:32:16 51°14.353 2°54.233 246.5 13.2 241 7.1
2007-04-18 07:32:21 51°14.343 2°54.208 244.2 13.2 238 7.1
2007-04-18 07:32:26 51°14.333 2°54.184 242.3 13.3 237 7.1
2007-04-18 07:32:30 51°14.325 2°54.164 240.2 13.3 238 7
2007-04-18 07:32:35 51°14.314 2°54.139 240.2 13.4 237 7
2007-04-18 07:32:41 51°14.302 2°54.109 240.2 13.4 237 5.4
2007-04-18 07:32:46 51°14.292 2°54.084 240.6 13.5 237 7
2007-04-18 07:32:50 51°14.284 2°54.064 240.1 13.5 238 7
2007-04-18 07:32:55 51°14.274 2°54.039 240.6 13.5 239 7
2007-04-18 07:33:01 51°14.263 2°54.008 240.9 13.6 239 7
2007-04-18 07:33:06 51°14.254 2°53.981 242.1 13.6 242 7
2007-04-18 07:33:10 51°14.248 2°53.959 244.5 13.6 245 7
2007-04-18 07:33:15 51°14.241 2°53.931 247.5 13.5 249 5.3
2007-04-18 07:33:21 51°14.233 2°53.898 250.7 13.6 249 7
2007-04-18 07:33:26 51°14.227 2°53.869 252.8 13.6 252 7.1
2007-04-18 07:33:31 51°14.223 2°53.84 255.1 13.6 255 7.1
2007-04-18 07:33:35 51°14.219 2°53.817 258.2 13.6 256 5.3
2007-04-18 07:33:41 51°14.214 2°53.782 260 13.6 258 7.1
2007-04-18 07:33:46 51°14.211 2°53.752 262.7 13.6 260 7.2
2007-04-18 07:33:51 51°14.207 2°53.723 264.4 13.6 259 7.3
2007-04-18 07:33:56 51°14.204 2°53.693 265.4 13.6 261 -999
2007-04-18 07:34:01 51°14.201 2°53.663 266.4 13.7 260 7.4
2007-04-18 07:34:05 51°14.198 2°53.639 266.4 13.8 258 7.4
2007-04-18 07:34:11 51°14.193 2°53.603 265 13.9 257 7.5
2007-04-18 07:34:16 51°14.187 2°53.573 263.4 13.9 255 7.5
2007-04-18 07:34:21 51°14.182 2°53.544 261.6 13.9 252 7.5
2007-04-18 07:34:25 51°14.176 2°53.521 258.8 14 250 7.5
2007-04-18 07:34:30 51°14.168 2°53.493 255.4 14 246 7.6
2007-04-18 07:34:36 51°14.158 2°53.459 252.3 14.1 246 7.5
2007-04-18 07:34:41 51°14.149 2°53.431 250.3 14.1 243 7.6
2007-04-18 07:34:45 51°14.142 2°53.409 248.5 14.1 243 7.7
2007-04-18 07:34:50 51°14.133 2°53.381 247.2 14.2 242 7.7
2007-04-18 07:34:55 51°14.124 2°53.353 246.3 14.2 243 7.7
2007-04-18 07:35:01 51°14.113 2°53.32 246 14.4 242 7.7
2007-04-18 07:35:06 51°14.104 2°53.291 246.3 14.4 244 7.8
2007-04-18 07:35:10 51°14.097 2°53.269 246.6 14.4 243 7.8
2007-04-18 07:35:15 51°14.089 2°53.24 247.5 14.4 246 7.9
2007-04-18 07:35:20 51°14.081 2°53.211 249 14.3 247 7.9
2007-04-18 07:35:26 51°14.072 2°53.175 250.4 14.3 248 7.9
2007-04-18 07:35:30 51°14.066 2°53.152 251.8 14.4 248 8
2007-04-18 07:35:35 51°14.058 2°53.122 252.9 14.4 248 8
2007-04-18 07:35:40 51°14.051 2°53.093 253.3 14.4 248 8.1
2007-04-18 07:35:46 51°14.041 2°53.058 253.2 14.4 246 8.1
2007-04-18 07:35:51 51°14.033 2°53.029 252.3 14.5 246 8.1
2007-04-18 07:35:55 51°14.026 2°53.006 251.4 14.4 244 8.1
2007-04-18 07:36:01 51°14.016 2°52.972 249.9 14.4 244 8.2
2007-04-18 07:36:05 51°14.008 2°52.95 248.1 14.4 241 8.2
2007-04-18 07:36:11 51°13.996 2°52.916 246.1 14.4 241 8.3
2007-04-18 07:36:15 51°13.988 2°52.895 245.1 14.4 238 8.3
2007-04-18 07:36:21 51°13.975 2°52.862 243.3 14.5 239 8.4
2007-04-18 07:36:25 51°13.967 2°52.84 242.6 14.4 239 8.3
2007-04-18 07:36:30 51°13.957 2°52.813 242.7 14.5 239 8.3
2007-04-18 07:36:36 51°13.945 2°52.779 242.3 14.6 241 8.3
2007-04-18 07:36:41 51°13.935 2°52.751 243.9 14.5 241 8.3
2007-04-18 07:36:45 51°13.928 2°52.728 245.3 14.4 242 8.4
2007-04-18 07:36:50 51°13.919 2°52.7 246 14.5 244 8.3
2007-04-18 07:36:55 51°13.91 2°52.671 247.4 14.5 244 8.4
2007-04-18 07:37:01 51°13.9 2°52.636 248.2 14.4 245 8.4
2007-04-18 07:37:05 51°13.893 2°52.613 248.8 14.5 244 8.4
2007-04-18 07:37:10 51°13.884 2°52.585 248.7 14.5 244 8.4
2007-04-18 07:37:15 51°13.875 2°52.556 247.8 14.4 242 8.4
2007-04-18 07:37:21 51°13.863 2°52.523 246.7 14.5 241 8.4
2007-04-18 07:37:26 51°13.853 2°52.495 245.2 14.5 239 8.5
2007-04-18 07:37:30 51°13.844 2°52.473 244 14.5 238 8.5
2007-04-18 07:37:35 51°13.834 2°52.446 242.4 14.4 239 8.4
2007-04-18 07:37:40 51°13.823 2°52.42 241.6 14.5 236 8.5
2007-04-18 07:37:46 51°13.81 2°52.387 240.4 14.5 239 8.5
2007-04-18 07:37:51 51°13.799 2°52.36 241.2 14.6 236 8.5
2007-04-18 07:37:55 51°13.791 2°52.337 240.7 14.6 240 8.5
2007-04-18 07:38:01 51°13.779 2°52.305 242.1 14.5 239 8.5
2007-04-18 07:38:06 51°13.769 2°52.277 242.7 14.5 240 8.5
2007-04-18 07:38:11 51°13.759 2°52.249 243.2 14.6 240 8.5
2007-04-18 07:38:15 51°13.751 2°52.226 244.1 14.5 240 8.6
2007-04-18 07:38:21 51°13.739 2°52.193 244.4 14.5 240 8.5
2007-04-18 07:38:25 51°13.731 2°52.171 243.9 14.5 240 8.6
2007-04-18 07:38:31 51°13.719 2°52.138 244.1 14.5 240 8.6
2007-04-18 07:38:36 51°13.708 2°52.11 243.3 14.5 239 8.6
2007-04-18 07:38:41 51°13.698 2°52.083 242.8 14.5 238 8.6
2007-04-18 07:38:45 51°13.689 2°52.061 241.8 14.5 237 8.6
2007-04-18 07:38:51 51°13.676 2°52.029 240.8 14.5 237 8.7
2007-04-18 07:38:56 51°13.665 2°52.002 240.2 14.6 236 8.6
2007-04-18 07:39:01 51°13.654 2°51.975 239.6 14.5 237 8.6
2007-04-18 07:39:05 51°13.645 2°51.954 239.5 14.6 236 8.7
2007-04-18 07:39:10 51°13.634 2°51.927 239.3 14.5 237 8.7
2007-04-18 07:39:16 51°13.621 2°51.895 239.3 14.4 237 8.7
2007-04-18 07:39:21 51°13.61 2°51.868 239.6 14.6 238 8.7
2007-04-18 07:39:26 51°13.599 2°51.841 240.3 14.6 238 8.7
2007-04-18 07:39:30 51°13.591 2°51.819 240.9 14.6 238 8.7
2007-04-18 07:39:35 51°13.58 2°51.791 241.1 14.6 239 8.7
2007-04-18 07:39:41 51°13.568 2°51.757 241.6 14.6 239 8.8
2007-04-18 07:39:46 51°13.557 2°51.73 242 14.7 239 8.8
2007-04-18 07:39:50 51°13.549 2°51.707 241.8 14.6 239 8.8
2007-04-18 07:39:55 51°13.538 2°51.68 242 14.6 238 8.8
2007-04-18 07:40:00 51°13.527 2°51.653 241.3 14.7 238 8.8
2007-04-18 07:40:06 51°13.514 2°51.62 241 14.7 237 8.8
2007-04-18 07:40:11 51°13.503 2°51.592 240.9 14.6 238 8.9
2007-04-18 07:40:15 51°13.495 2°51.571 240.7 14.6 237 8.9
2007-04-18 07:40:21 51°13.481 2°51.538 240.4 14.7 237 8.9
2007-04-18 07:40:26 51°13.471 2°51.51 240 14.7 238 8.9
2007-04-18 07:40:31 51°13.46 2°51.483 240.3 14.7 238 8.9
2007-04-18 07:40:35 51°13.451 2°51.461 240.7 14.6 238 8.9
2007-04-18 07:40:41 51°13.439 2°51.428 241 14.6 238 8.9
2007-04-18 07:40:45 51°13.43 2°51.406 241.2 14.7 240 8.9
2007-04-18 07:40:51 51°13.418 2°51.373 242.4 14.6 238 8.9
2007-04-18 07:40:56 51°13.407 2°51.345 242 14.7 239 8.9
2007-04-18 07:41:01 51°13.397 2°51.317 242 14.6 238 8.9
2007-04-18 07:41:05 51°13.388 2°51.295 242.3 14.7 239 8.9
2007-04-18 07:41:10 51°13.378 2°51.267 241.6 14.6 239 8.9
2007-04-18 07:41:16 51°13.365 2°51.234 241.9 14.7 238 8.9
2007-04-18 07:41:21 51°13.354 2°51.207 241.1 14.7 238 9
2007-04-18 07:41:26 51°13.343 2°51.179 241.1 14.7 237 8.9
2007-04-18 07:41:30 51°13.335 2°51.157 240.8 14.7 238 9
2007-04-18 07:41:36 51°13.322 2°51.124 240.7 14.7 238 9
2007-04-18 07:41:41 51°13.311 2°51.096 240.9 14.7 238 9
2007-04-18 07:41:46 51°13.301 2°51.069 241 14.8 238 9.1
2007-04-18 07:41:50 51°13.292 2°51.048 240.9 14.7 239 9
2007-04-18 07:41:55 51°13.282 2°51.02 241.2 14.7 238 9
2007-04-18 07:42:01 51°13.269 2°50.987 241.2 14.7 238 9
2007-04-18 07:42:06 51°13.258 2°50.958 240.9 14.7 238 9
2007-04-18 07:42:11 51°13.247 2°50.931 240.8 14.7 237 9
2007-04-18 07:42:15 51°13.238 2°50.909 240.4 14.7 238 9
2007-04-18 07:42:21 51°13.225 2°50.876 240.5 14.7 238 9
2007-04-18 07:42:26 51°13.214 2°50.848 240.7 14.7 238 9
2007-04-18 07:42:31 51°13.203 2°50.821 240.8 14.7 238 9.1
2007-04-18 07:42:35 51°13.195 2°50.799 240.9 14.7 238 9.2
2007-04-18 07:42:41 51°13.182 2°50.765 240.9 14.7 239 9.1
2007-04-18 07:42:45 51°13.173 2°50.743 241.2 14.8 238 9.1
2007-04-18 07:42:50 51°13.162 2°50.715 240.5 14.8 238 9.1
2007-04-18 07:42:56 51°13.149 2°50.682 240.6 14.8 238 9.1
2007-04-18 07:43:01 51°13.139 2°50.655 240.8 14.8 238 9.2
2007-04-18 07:43:05 51°13.13 2°50.633 240.7 14.8 237 9.1
2007-04-18 07:43:11 51°13.117 2°50.599 240.5 14.9 238 9.2
2007-04-18 07:43:16 51°13.106 2°50.571 240.5 14.9 238 9.2
2007-04-18 07:43:21 51°13.095 2°50.543 240.7 14.8 239 9.2
2007-04-18 07:43:25 51°13.086 2°50.52 241 14.9 239 9.2
2007-04-18 07:43:30 51°13.076 2°50.49 241.2 14.9 239 9.1
2007-04-18 07:43:35 51°13.065 2°50.463 241.5 14.9 238 9.2
2007-04-18 07:43:41 51°13.052 2°50.43 240.9 14.9 239 9.2
2007-04-18 07:43:46 51°13.041 2°50.402 241.3 14.9 239 9.3
2007-04-18 07:43:50 51°13.033 2°50.38 241.7 14.8 239 9.2
2007-04-18 07:43:56 51°13.02 2°50.347 241.6 14.8 238 9.2
2007-04-18 07:44:01 51°13.008 2°50.319 241.2 14.9 238 9.3
2007-04-18 07:44:06 51°12.997 2°50.292 240.4 14.9 238 9.3
2007-04-18 07:44:10 51°12.988 2°50.269 240.3 14.9 237 9.2
2007-04-18 07:44:15 51°12.977 2°50.241 240.2 14.9 238 9.3
2007-04-18 07:44:21 51°12.963 2°50.208 240.5 14.9 238 9.3
2007-04-18 07:44:26 51°12.952 2°50.18 240.4 14.9 238 9.3
2007-04-18 07:44:31 51°12.941 2°50.152 240.5 15 237 9.4
2007-04-18 07:44:35 51°12.932 2°50.13 240.2 14.9 238 9.3
2007-04-18 07:44:41 51°12.919 2°50.096 240.4 14.9 238 9.4
2007-04-18 07:44:46 51°12.908 2°50.068 240.6 14.9 238 9.4
2007-04-18 07:44:50 51°12.899 2°50.046 240.6 15 239 9.4
2007-04-18 07:44:55 51°12.888 2°50.018 240.8 15 238 9.4
2007-04-18 07:45:01 51°12.875 2°49.984 241 15 238 9.4
2007-04-18 07:45:06 51°12.863 2°49.956 241 15 238 9.4
2007-04-18 07:45:11 51°12.852 2°49.928 241 14.9 238 9.4
2007-04-18 07:45:16 51°12.841 2°49.901 240.9 15 238 9.4
2007-04-18 07:45:21 51°12.83 2°49.873 240.9 15 239 9.4
2007-04-18 07:45:25 51°12.821 2°49.851 241.2 15 238 9.4
2007-04-18 07:45:31 51°12.808 2°49.817 241.2 15 238 9.5
2007-04-18 07:45:35 51°12.8 2°49.795 241.2 15 240 9.4
2007-04-18 07:45:41 51°12.786 2°49.761 241.8 15 237 9.4
2007-04-18 07:45:46 51°12.776 2°49.733 240.9 15 240 9.4
2007-04-18 07:45:50 51°12.767 2°49.71 241.6 14.9 238 9.4
2007-04-18 07:45:56 51°12.754 2°49.676 241.6 14.9 239 9.4
2007-04-18 07:46:01 51°12.743 2°49.648 241.2 15 239 9.4
2007-04-18 07:46:06 51°12.732 2°49.619 241.6 15 239 9.5
2007-04-18 07:46:10 51°12.724 2°49.596 242.2 14.9 241 9.5
2007-04-18 07:46:16 51°12.713 2°49.561 243.7 14.9 242 9.5
2007-04-18 07:46:21 51°12.703 2°49.532 244.8 15 243 9.5
2007-04-18 07:46:25 51°12.696 2°49.508 246 15 243 9.5
2007-04-18 07:46:31 51°12.685 2°49.473 246.6 14.9 244 9.6
2007-04-18 07:46:35 51°12.677 2°49.449 247.4 14.8 244 9.6
2007-04-18 07:46:41 51°12.666 2°49.414 247.5 14.9 244 9.6
2007-04-18 07:46:46 51°12.657 2°49.385 247.1 14.8 243 9.6
2007-04-18 07:46:50 51°12.649 2°49.362 246.4 14.9 241 9.6
2007-04-18 07:46:55 51°12.639 2°49.333 245.2 14.9 241 9.6
2007-04-18 07:47:01 51°12.627 2°49.299 244.5 14.8 240 9.7
2007-04-18 07:47:06 51°12.616 2°49.271 243.3 14.8 240 9.6
2007-04-18 07:47:10 51°12.608 2°49.248 242.9 14.7 239 9.7
2007-04-18 07:47:16 51°12.595 2°49.215 242.6 14.8 239 9.7
2007-04-18 07:47:21 51°12.585 2°49.187 241.8 14.8 240 9.7
2007-04-18 07:47:25 51°12.576 2°49.165 242.5 14.7 238 9.7
2007-04-18 07:47:31 51°12.564 2°49.131 242.2 14.8 240 9.7
2007-04-18 07:47:35 51°12.555 2°49.108 242.5 14.8 239 9.7
2007-04-18 07:47:41 51°12.543 2°49.074 242.6 14.9 241 9.7
2007-04-18 07:47:45 51°12.535 2°49.051 242.9 14.7 240 9.7
2007-04-18 07:47:50 51°12.524 2°49.023 243.1 14.8 239 9.7
2007-04-18 07:47:56 51°12.512 2°48.989 242.4 14.8 240 9.7
2007-04-18 07:48:01 51°12.501 2°48.961 242.7 14.8 239 9.6
2007-04-18 07:48:06 51°12.491 2°48.932 242.3 14.8 241 9.7
2007-04-18 07:48:10 51°12.483 2°48.91 243 14.8 239 9.7
2007-04-18 07:48:16 51°12.47 2°48.876 242.6 14.8 240 9.6
2007-04-18 07:48:21 51°12.46 2°48.848 242.8 14.8 239 9.7
2007-04-18 07:48:25 51°12.452 2°48.825 242.6 14.8 241 9.6
2007-04-18 07:48:30 51°12.442 2°48.797 243.1 14.7 239 9.6
2007-04-18 07:48:35 51°12.431 2°48.769 243.1 14.8 240 9.7
2007-04-18 07:48:41 51°12.419 2°48.735 242.8 14.7 240 9.7
2007-04-18 07:48:46 51°12.409 2°48.707 243.3 14.8 240 9.7
2007-04-18 07:48:50 51°12.401 2°48.684 243 14.8 240 9.7
2007-04-18 07:48:55 51°12.39 2°48.656 242.9 14.8 240 9.7
2007-04-18 07:49:01 51°12.378 2°48.622 242.9 14.7 240 9.7
2007-04-18 07:49:06 51°12.368 2°48.594 243.2 14.7 241 9.8
2007-04-18 07:49:10 51°12.36 2°48.572 243.2 14.7 240 9.7
2007-04-18 07:49:15 51°12.35 2°48.543 243.3 14.7 241 9.7
2007-04-18 07:49:20 51°12.34 2°48.515 243.3 14.7 240 9.7
2007-04-18 07:49:26 51°12.328 2°48.481 243.2 14.7 241 9.8
2007-04-18 07:49:31 51°12.318 2°48.453 243.5 14.7 240 9.7
2007-04-18 07:49:35 51°12.31 2°48.43 243.3 14.7 241 9.8
2007-04-18 07:49:41 51°12.297 2°48.397 243.6 14.7 240 9.8
2007-04-18 07:49:45 51°12.289 2°48.374 243.3 14.7 240 9.8
2007-04-18 07:49:51 51°12.277 2°48.341 243 14.7 240 9.8
2007-04-18 07:49:55 51°12.269 2°48.318 243 14.7 240 9.7
2007-04-18 07:50:01 51°12.257 2°48.284 243 14.7 241 9.7
2007-04-18 07:50:06 51°12.246 2°48.256 242.7 14.7 240 9.7
2007-04-18 07:50:11 51°12.236 2°48.228 243.1 14.7 240 9.8
2007-04-18 07:50:16 51°12.226 2°48.2 243 14.7 239 9.8
2007-04-18 07:50:21 51°12.216 2°48.171 242.6 14.8 242 9.8
2007-04-18 07:50:25 51°12.208 2°48.149 243 14.7 241 9.8
2007-04-18 07:50:30 51°12.199 2°48.12 243.4 14.8 245 9.8
2007-04-18 07:50:36 51°12.19 2°48.084 247 14.7 248 9.7
2007-04-18 07:50:41 51°12.183 2°48.053 250.4 14.7 250 9.9
2007-04-18 07:50:45 51°12.178 2°48.028 253.2 14.6 253 9.9
2007-04-18 07:50:50 51°12.172 2°47.997 255.7 14.7 253 10
2007-04-18 07:50:55 51°12.167 2°47.966 257.6 14.7 255 10
2007-04-18 07:51:01 51°12.16 2°47.928 259 14.7 255 10
2007-04-18 07:51:06 51°12.156 2°47.897 259.9 14.7 256 10.1
2007-04-18 07:51:10 51°12.152 2°47.871 260.8 14.8 256 10.1
2007-04-18 07:51:15 51°12.147 2°47.84 260.9 14.7 257 10.2
2007-04-18 07:51:20 51°12.142 2°47.808 261.3 14.6 256 10.2
2007-04-18 07:51:26 51°12.136 2°47.772 261.6 14 256 10.2
2007-04-18 07:51:31 51°12.132 2°47.743 261.5 13.7 256 10.2
2007-04-18 07:51:35 51°12.128 2°47.72 261.3 13.4 255 10.3
2007-04-18 07:51:41 51°12.122 2°47.688 260.8 12.6 255 10.4
2007-04-18 07:51:46 51°12.117 2°47.663 260.3 11.8 253 10.4
2007-04-18 07:51:51 51°12.113 2°47.64 259.2 11.1 252 10.5
2007-04-18 07:51:55 51°12.108 2°47.622 257.6 10.4 249 10.6
2007-04-18 07:52:01 51°12.102 2°47.598 254.7 9.8 245 10.7
2007-04-18 07:52:05 51°12.097 2°47.584 251.3 9.3 243 10.7
2007-04-18 07:52:11 51°12.09 2°47.564 247.6 8.8 239 10.7
2007-04-18 07:52:16 51°12.084 2°47.548 243.7 8.3 238 10.8
2007-04-18 07:52:21 51°12.077 2°47.534 240.2 7.8 234 10.8
2007-04-18 07:52:25 51°12.072 2°47.524 236.7 7 232 10.7
2007-04-18 07:52:30 51°12.066 2°47.513 233.6 6.4 230 10.7
2007-04-18 07:52:36 51°12.06 2°47.502 230 5.8 228 10.7
2007-04-18 07:52:41 51°12.055 2°47.493 226.6 5.3 228 10.7
2007-04-18 07:52:45 51°12.051 2°47.488 223.8 4.7 225 10.7
2007-04-18 07:52:50 51°12.047 2°47.481 221.6 4.2 225 10.7
2007-04-18 07:52:55 51°12.043 2°47.475 220 3.8 224 10.7
2007-04-18 07:53:01 51°12.039 2°47.469 218.9 3.4 226 10.8
2007-04-18 07:53:06 51°12.036 2°47.463 217.3 3.3 225 10.7
2007-04-18 07:53:10 51°12.034 2°47.459 215.5 3.3 225 10.7
2007-04-18 07:53:15 51°12.03 2°47.455 213.5 3.1 223 10.7
2007-04-18 07:53:21 51°12.027 2°47.449 211.2 3.1 222 10.7
2007-04-18 07:53:26 51°12.023 2°47.445 209.7 3.1 221 10.7
2007-04-18 07:53:30 51°12.021 2°47.441 207.9 3 221 10.7
2007-04-18 07:53:35 51°12.018 2°47.437 206.1 3 218 10.6
2007-04-18 07:53:40 51°12.014 2°47.433 204.6 2.9 219 10.6
2007-04-18 07:53:46 51°12.011 2°47.428 203.4 2.9 218 10.6
2007-04-18 07:53:51 51°12.007 2°47.424 202.3 2.9 219 10.6
2007-04-18 07:53:55 51°12.005 2°47.421 201.2 2.8 217 10.5
2007-04-18 07:54:01 51°12.001 2°47.417 200.1 2.8 217 10.4
2007-04-18 07:54:06 51°11.998 2°47.413 199 2.8 216 10.4
2007-04-18 07:54:11 51°11.995 2°47.41 198.3 2.8 216 10.4
2007-04-18 07:54:15 51°11.992 2°47.407 197.5 2.7 216 10.4
2007-04-18 07:54:21 51°11.989 2°47.403 197 2.7 216 10.4
2007-04-18 07:54:25 51°11.986 2°47.4 196.4 2.7 217 10.4
2007-04-18 07:54:31 51°11.983 2°47.396 195.9 2.7 215 10.4
2007-04-18 07:54:36 51°11.98 2°47.392 195.5 2.7 216 10.4
2007-04-18 07:54:41 51°11.977 2°47.389 195.2 2.6 216 10.4
2007-04-18 07:54:45 51°11.975 2°47.386 194.9 2.6 216 10.4
2007-04-18 07:54:50 51°11.972 2°47.382 194.5 2.6 215 10.3
2007-04-18 07:54:56 51°11.968 2°47.378 194.3 2.8 215 10.3
2007-04-18 07:55:01 51°11.964 2°47.375 193.9 3 212 10.3
2007-04-18 07:55:06 51°11.961 2°47.371 193.7 3.2 210 10.3
2007-04-18 07:55:10 51°11.957 2°47.368 193.5 3.4 209 10.3
2007-04-18 07:55:16 51°11.952 2°47.364 193.2 3.7 208 10.2
2007-04-18 07:55:21 51°11.947 2°47.36 192.8 3.9 206 10.2
2007-04-18 07:55:26 51°11.942 2°47.356 192.5 4.2 206 10.2
2007-04-18 07:55:30 51°11.937 2°47.352 192.2 4.4 205 10.1
2007-04-18 07:55:35 51°11.931 2°47.348 193 4.7 207 10.1
2007-04-18 07:55:41 51°11.924 2°47.342 194.8 5 207 10
2007-04-18 07:55:46 51°11.918 2°47.337 197.5 5.2 209 10
2007-04-18 07:55:51 51°11.911 2°47.331 199.8 5.3 208 10
2007-04-18 07:55:55 51°11.906 2°47.326 201.4 5.6 210 9.9
2007-04-18 07:56:01 51°11.898 2°47.319 202.5 5.7 210 9.9
2007-04-18 07:56:06 51°11.891 2°47.312 203.2 5.9 210 9.7
2007-04-18 07:56:11 51°11.883 2°47.306 203.7 6 210 9.7
2007-04-18 07:56:15 51°11.878 2°47.3 204.2 6.2 212 9.7
2007-04-18 07:56:21 51°11.869 2°47.291 204.4 6.2 211 9.6
2007-04-18 07:56:26 51°11.862 2°47.283 205.3 6.3 215 9.6
2007-04-18 07:56:31 51°11.855 2°47.275 208.7 6.2 219 9.5
2007-04-18 07:56:36 51°11.849 2°47.266 212.9 6 221 9.5
2007-04-18 07:56:41 51°11.843 2°47.257 217.5 5.9 225 9.5
2007-04-18 07:56:45 51°11.839 2°47.249 221.9 5.8 228 9.5
2007-04-18 07:56:51 51°11.832 2°47.238 226.4 5.8 230 9.4
2007-04-18 07:56:56 51°11.828 2°47.228 230.2 5.7 233 9.3
2007-04-18 07:57:01 51°11.823 2°47.217 233.2 5.6 234 9.3
2007-04-18 07:57:05 51°11.82 2°47.21 234.9 5.5 234 9.4
2007-04-18 07:57:10 51°11.815 2°47.2 236.3 5.5 236 9.4
2007-04-18 07:57:16 51°11.81 2°47.188 237.3 5.3 236 9.3
2007-04-18 07:57:21 51°11.806 2°47.178 237.7 5.2 236 9.3
2007-04-18 07:57:26 51°11.802 2°47.169 238.2 5.1 237 9.3
2007-04-18 07:57:30 51°11.799 2°47.162 238.9 5 238 9.3
2007-04-18 07:57:36 51°11.795 2°47.151 239.8 4.9 238 9.3
2007-04-18 07:57:41 51°11.792 2°47.142 240.3 4.8 239 9.3
2007-04-18 07:57:46 51°11.788 2°47.133 241 4.7 239 9.3
2007-04-18 07:57:50 51°11.785 2°47.126 241.6 4.6 239 9.3
2007-04-18 07:57:55 51°11.782 2°47.117 242.3 4.5 240 9.2
2007-04-18 07:58:01 51°11.778 2°47.107 242.8 4.5 240 9.3
2007-04-18 07:58:06 51°11.775 2°47.099 243.4 4.4 240 9.3
2007-04-18 07:58:11 51°11.772 2°47.09 243.8 4.3 240 9.3
2007-04-18 07:58:15 51°11.77 2°47.084 244.4 4.3 241 9.3
2007-04-18 07:58:21 51°11.767 2°47.074 244.8 4.2 241 9.2
2007-04-18 07:58:26 51°11.764 2°47.066 245.2 4.1 241 9.2
2007-04-18 07:58:31 51°11.761 2°47.058 245.5 4.1 241 9.3
2007-04-18 07:58:35 51°11.759 2°47.052 245.9 4 241 9.3
2007-04-18 07:58:41 51°11.756 2°47.043 246.1 3.9 242 9.3
2007-04-18 07:58:46 51°11.753 2°47.035 246.5 3.8 241 9.3
2007-04-18 07:58:51 51°11.751 2°47.028 246.7 3.8 242 9.3
2007-04-18 07:58:56 51°11.749 2°47.021 247.1 3.7 242 9.3
2007-04-18 07:59:01 51°11.746 2°47.014 247.5 3.6 242 9.3
2007-04-18 07:59:05 51°11.744 2°47.008 247.6 3.6 241 9.3
2007-04-18 07:59:11 51°11.742 2°47 247.8 3.5 242 9.3
2007-04-18 07:59:16 51°11.739 2°46.993 248.1 3.4 242 9.3
2007-04-18 07:59:21 51°11.737 2°46.987 248.2 3.4 243 9.2
2007-04-18 07:59:26 51°11.735 2°46.98 248.2 3.3 242 9.2
2007-04-18 07:59:31 51°11.733 2°46.974 248.3 3.3 242 9.2
2007-04-18 07:59:36 51°11.731 2°46.967 248.3 3.3 242 9.2
2007-04-18 07:59:41 51°11.729 2°46.961 248.1 3.2 243 9.2
2007-04-18 07:59:46 51°11.727 2°46.955 247.9 3.1 241 9.2
2007-04-18 07:59:50 51°11.725 2°46.95 247.6 3.1 241 9.2
2007-04-18 07:59:55 51°11.723 2°46.944 247.2 3 240 9.2
2007-04-18 08:00:01 51°11.721 2°46.937 246.7 3 241 9.3
2007-04-18 08:00:06 51°11.718 2°46.931 246.2 3 240 9.2
2007-04-18 08:00:11 51°11.716 2°46.926 245.4 3 240 9.2
2007-04-18 08:00:15 51°11.715 2°46.921 244.8 2.9 239 9.2
2007-04-18 08:00:21 51°11.712 2°46.915 244 2.9 240 9.2
2007-04-18 08:00:26 51°11.71 2°46.909 243.4 2.9 239 9.2
2007-04-18 08:00:31 51°11.708 2°46.904 242.9 2.8 238 9.3
2007-04-18 08:00:35 51°11.706 2°46.899 242.3 2.8 238 9.2
2007-04-18 08:00:41 51°11.704 2°46.893 241.7 2.9 238 9.2
2007-04-18 08:00:46 51°11.702 2°46.888 240.9 2.8 237 9.2
2007-04-18 08:00:50 51°11.7 2°46.884 240.2 2.8 237 9.3
2007-04-18 08:00:56 51°11.698 2°46.877 239.6 2.8 237 9.1
2007-04-18 08:01:01 51°11.695 2°46.872 239 2.8 236 9.2
2007-04-18 08:01:06 51°11.693 2°46.867 238.2 2.8 236 9.2
2007-04-18 08:01:11 51°11.691 2°46.862 237.5 2.8 235 9.2
2007-04-18 08:01:16 51°11.689 2°46.857 237 2.8 236 9.1
2007-04-18 08:01:21 51°11.687 2°46.851 236.7 2.9 236 9.1
2007-04-18 08:01:25 51°11.685 2°46.847 236.4 2.9 237 9.1
2007-04-18 08:01:31 51°11.682 2°46.841 236.3 2.9 236 9.1
2007-04-18 08:01:35 51°11.681 2°46.836 236.3 2.9 236 9.1
2007-04-18 08:01:41 51°11.678 2°46.83 236.5 2.9 235 9.2
2007-04-18 08:01:46 51°11.676 2°46.824 236.8 3 236 9.1
2007-04-18 08:01:50 51°11.674 2°46.82 237.3 3 237 9
2007-04-18 08:01:56 51°11.671 2°46.813 237.6 3 237 9.1
2007-04-18 08:02:01 51°11.669 2°46.808 238 3 237 9.1
2007-04-18 08:02:06 51°11.666 2°46.802 238.3 3 237 9.1
2007-04-18 08:02:10 51°11.665 2°46.798 238.8 3 236 9.1
2007-04-18 08:02:16 51°11.662 2°46.791 239.2 3.1 237 9.1
2007-04-18 08:02:21 51°11.66 2°46.785 239.7 3.1 238 9.1
2007-04-18 08:02:26 51°11.657 2°46.779 240.2 3.1 238 9
2007-04-18 08:02:31 51°11.655 2°46.774 240.5 3.1 239 9.1
2007-04-18 08:02:35 51°11.653 2°46.769 241.1 3.1 239 9
2007-04-18 08:02:41 51°11.65 2°46.762 241.7 3.1 239 9
2007-04-18 08:02:46 51°11.648 2°46.756 242.4 3.1 238 9
2007-04-18 08:02:50 51°11.646 2°46.751 243.1 3.1 239 9
2007-04-18 08:02:55 51°11.644 2°46.745 243.8 3.1 238 9.1
2007-04-18 08:03:01 51°11.642 2°46.738 244.1 3.2 240 9
2007-04-18 08:03:06 51°11.639 2°46.732 244.5 3.2 239 9
2007-04-18 08:03:11 51°11.637 2°46.726 244.5 3.2 239 9
2007-04-18 08:03:16 51°11.635 2°46.721 244.8 3.2 239 9
2007-04-18 08:03:21 51°11.633 2°46.714 244.9 3.2 240 9.1
2007-04-18 08:03:25 51°11.631 2°46.709 245 3.2 239 9
2007-04-18 08:03:31 51°11.628 2°46.702 245.1 3.2 240 9
2007-04-18 08:03:35 51°11.627 2°46.697 245.3 3.2 239 9
2007-04-18 08:03:41 51°11.624 2°46.69 245.4 3.2 239 9
2007-04-18 08:03:46 51°11.622 2°46.684 245.4 3.2 240 9
2007-04-18 08:03:50 51°11.62 2°46.679 245.5 3.2 240 9
2007-04-18 08:03:56 51°11.617 2°46.672 245.7 3.2 239 9
2007-04-18 08:04:01 51°11.615 2°46.665 245.6 3.2 240 9
2007-04-18 08:04:06 51°11.614 2°46.659 245.7 3.2 240 9
2007-04-18 08:04:10 51°11.612 2°46.654 245.9 3.2 241 9
2007-04-18 08:04:16 51°11.61 2°46.646 246 3.2 240 9
2007-04-18 08:04:21 51°11.608 2°46.64 246.1 3.2 240 9
2007-04-18 08:04:25 51°11.606 2°46.635 246.3 3.2 239 9
2007-04-18 08:04:31 51°11.603 2°46.628 246.5 3.2 241 9.1
2007-04-18 08:04:35 51°11.602 2°46.623 246.6 3.2 240 9
2007-04-18 08:04:41 51°11.599 2°46.616 246.9 3.2 241 9
2007-04-18 08:04:46 51°11.597 2°46.609 247.1 3.2 240 9
2007-04-18 08:04:50 51°11.595 2°46.604 247.3 3.2 241 9
2007-04-18 08:04:55 51°11.593 2°46.598 247.5 3.2 241 9
2007-04-18 08:05:01 51°11.59 2°46.591 247.6 3.2 242 9
2007-04-18 08:05:06 51°11.588 2°46.585 247.8 3.2 241 9
2007-04-18 08:05:10 51°11.586 2°46.58 247.8 3.2 241 8.9
2007-04-18 08:05:16 51°11.584 2°46.572 248.1 3.2 241 9
2007-04-18 08:05:21 51°11.581 2°46.566 248.2 3.2 240 9
2007-04-18 08:05:25 51°11.58 2°46.561 248.2 3.2 241 9
2007-04-18 08:05:31 51°11.577 2°46.554 248.4 3.2 241 9
2007-04-18 08:05:35 51°11.575 2°46.549 248.6 3.2 242 9
2007-04-18 08:05:41 51°11.573 2°46.541 248.6 3.2 241 8.9
2007-04-18 08:05:45 51°11.571 2°46.536 248.7 3.2 242 8.9
2007-04-18 08:05:51 51°11.568 2°46.529 248.8 3.2 242 9
2007-04-18 08:05:55 51°11.566 2°46.524 248.9 3.3 242 9
2007-04-18 08:06:01 51°11.564 2°46.516 249.2 3.2 242 8.9
2007-04-18 08:06:06 51°11.562 2°46.51 249.2 3.2 242 8.9
2007-04-18 08:06:10 51°11.56 2°46.505 249.4 3.2 242 8.9
2007-04-18 08:06:16 51°11.557 2°46.497 249.6 3.2 241 9
2007-04-18 08:06:21 51°11.555 2°46.491 249.6 3.3 242 9
2007-04-18 08:06:25 51°11.553 2°46.486 249.8 3.3 242 9
2007-04-18 08:06:30 51°11.551 2°46.48 250 3.2 242 8.9
2007-04-18 08:06:36 51°11.549 2°46.472 250.3 3.2 242 8.9
2007-04-18 08:06:41 51°11.547 2°46.466 250.3 3.2 242 9
2007-04-18 08:06:46 51°11.544 2°46.46 250.5 3.2 242 9
2007-04-18 08:06:50 51°11.543 2°46.455 250.8 3.3 242 9
2007-04-18 08:06:55 51°11.541 2°46.448 250.9 3.2 242 9
2007-04-18 08:07:01 51°11.538 2°46.441 251.1 3.2 243 9
2007-04-18 08:07:06 51°11.536 2°46.434 251.3 3.2 243 9
2007-04-18 08:07:10 51°11.535 2°46.429 251.5 3.2 243 9
2007-04-18 08:07:15 51°11.532 2°46.423 251.7 3.2 243 9
2007-04-18 08:07:21 51°11.53 2°46.415 251.8 3.2 243 9
2007-04-18 08:07:26 51°11.528 2°46.409 252 3.3 244 8.9
2007-04-18 08:07:31 51°11.526 2°46.402 252 3.3 243 9
2007-04-18 08:07:35 51°11.524 2°46.397 252.1 3.2 244 9
2007-04-18 08:07:41 51°11.522 2°46.39 252.5 3.2 243 9
2007-04-18 08:07:46 51°11.52 2°46.383 252.7 3.2 243 9
2007-04-18 08:07:51 51°11.518 2°46.377 252.8 3.2 244 9
2007-04-18 08:07:55 51°11.516 2°46.372 253.1 3.2 245 9
2007-04-18 08:08:01 51°11.514 2°46.364 253.2 3.2 244 9
2007-04-18 08:08:05 51°11.513 2°46.359 253.4 3.2 244 9
2007-04-18 08:08:11 51°11.51 2°46.351 253.7 3.2 244 9
2007-04-18 08:08:16 51°11.508 2°46.345 254 3.2 245 9
2007-04-18 08:08:21 51°11.506 2°46.338 254.2 3.3 244 9
2007-04-18 08:08:25 51°11.505 2°46.333 254.1 3.2 245 9
2007-04-18 08:08:31 51°11.502 2°46.326 254.3 3.2 245 9
2007-04-18 08:08:36 51°11.499 2°46.32 254.4 3.2 245 9
2007-04-18 08:08:41 51°11.497 2°46.313 254.7 3.2 245 9
2007-04-18 08:08:45 51°11.496 2°46.308 254.7 3.2 244 9
2007-04-18 08:08:50 51°11.494 2°46.302 254.7 3.2 244 9
2007-04-18 08:08:56 51°11.492 2°46.294 254.8 3.2 244 9
2007-04-18 08:09:01 51°11.49 2°46.288 254.9 3.2 245 9
2007-04-18 08:09:06 51°11.488 2°46.281 255.2 3.2 244 9
2007-04-18 08:09:10 51°11.486 2°46.276 255.3 3.2 246 9
2007-04-18 08:09:15 51°11.484 2°46.27 255.4 3.2 245 9
2007-04-18 08:09:21 51°11.482 2°46.262 255.5 3.2 245 9
2007-04-18 08:09:26 51°11.48 2°46.255 255.5 3.2 244 9
2007-04-18 08:09:30 51°11.479 2°46.25 255.9 3.2 245 9
2007-04-18 08:09:35 51°11.477 2°46.243 256.1 3.2 245 9
2007-04-18 08:09:41 51°11.475 2°46.236 256.3 3.2 245 9
2007-04-18 08:09:46 51°11.473 2°46.229 256.4 3.2 245 8.9
2007-04-18 08:09:51 51°11.471 2°46.223 256.5 3.3 245 9
2007-04-18 08:09:55 51°11.469 2°46.218 256.6 3.2 245 9
2007-04-18 08:10:01 51°11.467 2°46.21 256.6 3.2 245 9
2007-04-18 08:10:06 51°11.465 2°46.203 256.8 3.2 246 9
2007-04-18 08:10:11 51°11.463 2°46.197 256.9 3.2 246 9
2007-04-18 08:10:15 51°11.462 2°46.191 257 3.2 246 9.1
2007-04-18 08:10:21 51°11.46 2°46.184 257.3 3.2 246 9.1
2007-04-18 08:10:25 51°11.458 2°46.178 257.6 3.2 246 9.1
2007-04-18 08:10:31 51°11.456 2°46.17 257.8 3.2 246 9.1
2007-04-18 08:10:36 51°11.454 2°46.164 258.2 3.2 247 9.1
2007-04-18 08:10:41 51°11.453 2°46.157 258.4 3.2 246 9
2007-04-18 08:10:45 51°11.451 2°46.152 258.7 3.3 247 9.1
2007-04-18 08:10:51 51°11.449 2°46.144 258.9 3.3 247 9.1
2007-04-18 08:10:56 51°11.447 2°46.137 259 3.3 247 9
2007-04-18 08:11:01 51°11.445 2°46.131 259.2 3.3 247 9.1
2007-04-18 08:11:06 51°11.444 2°46.124 259.8 3.3 247 9
2007-04-18 08:11:10 51°11.442 2°46.119 260.3 3.3 248 9.1
2007-04-18 08:11:15 51°11.441 2°46.112 260.9 3.3 247 9.1
2007-04-18 08:11:21 51°11.439 2°46.104 261.4 3.3 249 9.1
2007-04-18 08:11:26 51°11.437 2°46.097 262.2 3.3 248 9
2007-04-18 08:11:30 51°11.436 2°46.092 263.2 3.2 249 9.1
2007-04-18 08:11:35 51°11.434 2°46.085 264.4 3.2 250 9.1
2007-04-18 08:11:41 51°11.432 2°46.077 265.8 3.2 251 9.1
2007-04-18 08:11:46 51°11.431 2°46.071 267.4 3.2 251 9.1
2007-04-18 08:11:51 51°11.429 2°46.064 269 3.2 252 9.1
2007-04-18 08:11:55 51°11.428 2°46.059 270.5 3.2 251 9.1
2007-04-18 08:12:01 51°11.427 2°46.05 272 3.2 252 9.1
2007-04-18 08:12:06 51°11.425 2°46.044 273.7 3.1 254 9.1
2007-04-18 08:12:11 51°11.424 2°46.037 275.5 3.1 254 9.1
2007-04-18 08:12:15 51°11.423 2°46.032 277.2 3.1 256 9.1
2007-04-18 08:12:21 51°11.422 2°46.024 278.9 3.1 256 9.1
2007-04-18 08:12:25 51°11.421 2°46.019 280.7 3.1 257 9.2
2007-04-18 08:12:31 51°11.42 2°46.011 282.3 3.1 257 9.1
2007-04-18 08:12:36 51°11.42 2°46.004 283.9 3 259 9.2
2007-04-18 08:12:41 51°11.419 2°45.998 285.6 3 259 9.2
2007-04-18 08:12:45 51°11.418 2°45.992 287.4 3 260 9.2
2007-04-18 08:12:51 51°11.417 2°45.984 289 3 261 9.2
2007-04-18 08:12:56 51°11.417 2°45.978 290.8 3 262 9.2
2007-04-18 08:13:01 51°11.416 2°45.971 292.7 3 263 9.3
2007-04-18 08:13:05 51°11.416 2°45.966 294.5 2.9 264 9.2
2007-04-18 08:13:10 51°11.415 2°45.96 296.1 2.9 264 9.2
2007-04-18 08:13:16 51°11.415 2°45.952 297.8 2.9 265 9.3
2007-04-18 08:13:21 51°11.415 2°45.946 299.5 2.9 265 9.4
2007-04-18 08:13:26 51°11.414 2°45.939 301.2 2.9 267 9.4
2007-04-18 08:13:30 51°11.414 2°45.935 302.9 2.9 267 9.4
2007-04-18 08:13:35 51°11.414 2°45.928 304.6 2.8 269 9.3
2007-04-18 08:13:41 51°11.414 2°45.921 306.4 2.8 270 9.4
2007-04-18 08:13:46 51°11.414 2°45.915 308.4 2.8 271 9.4
2007-04-18 08:13:50 51°11.414 2°45.91 310.3 2.7 271 9.4
2007-04-18 08:13:55 51°11.414 2°45.904 312.2 2.7 272 9.4
2007-04-18 08:14:01 51°11.415 2°45.897 314.2 2.6 274 9.4
2007-04-18 08:14:06 51°11.415 2°45.891 316.4 2.7 275 9.5
2007-04-18 08:14:11 51°11.416 2°45.885 318 2.7 277 9.5
2007-04-18 08:14:15 51°11.416 2°45.881 319.6 2.7 280 9.5
2007-04-18 08:14:21 51°11.417 2°45.873 321 2.8 282 9.6
2007-04-18 08:14:26 51°11.418 2°45.867 322.2 2.8 285 9.6
2007-04-18 08:14:31 51°11.419 2°45.861 323.6 2.9 286 9.6
2007-04-18 08:14:35 51°11.42 2°45.856 324.7 2.9 288 9.6
2007-04-18 08:14:41 51°11.422 2°45.849 325.4 3 289 9.6
2007-04-18 08:14:45 51°11.423 2°45.844 326.1 3 292 9.7
2007-04-18 08:14:51 51°11.425 2°45.836 326.6 3.1 292 9.7
2007-04-18 08:14:56 51°11.427 2°45.83 326.9 3.1 294 9.8
2007-04-18 08:15:01 51°11.429 2°45.824 326.8 3.2 294 9.8
2007-04-18 08:15:05 51°11.43 2°45.818 326.4 3.2 295 9.8
2007-04-18 08:15:11 51°11.433 2°45.81 325.8 3.4 294 9.8
2007-04-18 08:15:16 51°11.435 2°45.803 324.9 3.4 294 9.9
2007-04-18 08:15:21 51°11.436 2°45.796 323.7 3.5 293 9.9
2007-04-18 08:15:26 51°11.438 2°45.789 321.9 3.5 293 10
2007-04-18 08:15:30 51°11.44 2°45.783 320.3 3.6 291 10
2007-04-18 08:15:36 51°11.442 2°45.774 318.6 3.6 289 10
2007-04-18 08:15:41 51°11.443 2°45.767 316.3 3.6 287 10.1
2007-04-18 08:15:46 51°11.444 2°45.759 313.6 3.7 285 10.1
2007-04-18 08:15:50 51°11.445 2°45.752 310.9 3.7 283 10.1
2007-04-18 08:15:55 51°11.447 2°45.744 308.1 3.8 282 10.2
2007-04-18 08:16:01 51°11.448 2°45.734 305.3 3.7 280 10.2
2007-04-18 08:16:06 51°11.448 2°45.726 302.8 3.7 278 10.2
2007-04-18 08:16:11 51°11.449 2°45.718 300.9 3.7 278 10.2
2007-04-18 08:16:15 51°11.449 2°45.711 299.7 3.7 276 10.3
2007-04-18 08:16:21 51°11.45 2°45.702 299 3.7 276 10.3
2007-04-18 08:16:26 51°11.45 2°45.693 298.2 3.7 275 10.4
2007-04-18 08:16:31 51°11.451 2°45.686 297.7 3.6 274 10.4
2007-04-18 08:16:35 51°11.451 2°45.679 297.2 3.6 274 10.4
2007-04-18 08:16:41 51°11.451 2°45.669 296.8 3.6 273 10.5
2007-04-18 08:16:45 51°11.452 2°45.663 296.6 3.6 273 10.4
2007-04-18 08:16:51 51°11.452 2°45.654 296.3 3.6 273 10.5
2007-04-18 08:16:56 51°11.452 2°45.645 296 3.6 273 10.5
2007-04-18 08:17:01 51°11.452 2°45.638 295.7 3.6 272 10.5
2007-04-18 08:17:05 51°11.452 2°45.631 295.4 3.5 272 10.5
2007-04-18 08:17:11 51°11.453 2°45.622 295.3 3.5 272 10.6
2007-04-18 08:17:16 51°11.453 2°45.614 295.1 3.5 272 10.5
2007-04-18 08:17:21 51°11.453 2°45.607 295 3.5 272 10.5
2007-04-18 08:17:25 51°11.453 2°45.601 294.9 3.5 271 10.6
2007-04-18 08:17:31 51°11.453 2°45.591 294.9 3.5 272 10.6
2007-04-18 08:17:36 51°11.454 2°45.584 294.8 3.4 272 10.6
2007-04-18 08:17:41 51°11.454 2°45.576 294.7 3.4 271 10.6
2007-04-18 08:17:46 51°11.454 2°45.569 294.6 3.4 272 10.6
2007-04-18 08:17:50 51°11.454 2°45.563 294.5 3.4 271 10.6
2007-04-18 08:17:56 51°11.454 2°45.554 294.5 3.4 271 10.7
2007-04-18 08:18:01 51°11.454 2°45.546 294.4 3.4 272 10.7
2007-04-18 08:18:06 51°11.454 2°45.539 294.5 3.4 272 10.7
2007-04-18 08:18:10 51°11.454 2°45.533 294.6 3.3 272 10.7
2007-04-18 08:18:15 51°11.454 2°45.526 294.7 3.4 272 10.7
2007-04-18 08:18:21 51°11.454 2°45.517 295.1 3.3 272 10.8
2007-04-18 08:18:26 51°11.455 2°45.51 295.4 3.3 272 10.8
2007-04-18 08:18:31 51°11.455 2°45.502 295.6 3.3 272 10.7
2007-04-18 08:18:35 51°11.455 2°45.497 295.9 3.3 273 10.8
2007-04-18 08:18:41 51°11.456 2°45.488 296.2 3.3 274 10.8
2007-04-18 08:18:46 51°11.456 2°45.481 296.8 3.2 275 10.8
2007-04-18 08:18:50 51°11.456 2°45.475 297.4 3.2 275 10.8
2007-04-18 08:18:55 51°11.457 2°45.468 298 3.2 276 10.8
2007-04-18 08:19:01 51°11.457 2°45.46 298.8 3.1 276 10.9
2007-04-18 08:19:06 51°11.458 2°45.453 299.5 3.1 277 10.9
2007-04-18 08:19:11 51°11.458 2°45.446 300.4 3.1 277 10.9
2007-04-18 08:19:16 51°11.459 2°45.44 301.2 3.1 279 10.9
2007-04-18 08:19:21 51°11.46 2°45.433 302 3 279 11
2007-04-18 08:19:25 51°11.46 2°45.428 302.9 3 281 11
2007-04-18 08:19:31 51°11.461 2°45.42 303.7 3 281 11
2007-04-18 08:19:35 51°11.462 2°45.415 304.5 3 282 11
2007-04-18 08:19:41 51°11.463 2°45.407 305.2 3 281 11
2007-04-18 08:19:46 51°11.464 2°45.4 305.6 3 282 11
2007-04-18 08:19:51 51°11.464 2°45.394 306 3 281 11
2007-04-18 08:19:56 51°11.465 2°45.387 306.2 3 281 11
2007-04-18 08:20:01 51°11.466 2°45.381 306.3 3 281 11
2007-04-18 08:20:06 51°11.467 2°45.375 306.2 3 280 11
2007-04-18 08:20:10 51°11.468 2°45.37 306.2 3 281 11.1
2007-04-18 08:20:16 51°11.468 2°45.362 305.8 3 279 11.1
2007-04-18 08:20:21 51°11.469 2°45.355 305.5 3 280 11.2
2007-04-18 08:20:26 51°11.47 2°45.349 305.2 2.9 281 11.2
2007-04-18 08:20:31 51°11.471 2°45.343 304.9 2.9 280 11.2
2007-04-18 08:20:36 51°11.471 2°45.336 304.6 3 279 11.2
2007-04-18 08:20:41 51°11.472 2°45.33 304.2 2.9 279 11.2
2007-04-18 08:20:46 51°11.472 2°45.323 304 3 278 11.2
2007-04-18 08:20:50 51°11.473 2°45.318 303.7 3 279 11.2
2007-04-18 08:20:55 51°11.474 2°45.311 303.5 3 278 11.2
2007-04-18 08:21:01 51°11.474 2°45.304 303.4 3 278 11.2
2007-04-18 08:21:06 51°11.475 2°45.297 303.5 3 278 11.2
2007-04-18 08:21:11 51°11.475 2°45.291 303.6 3 279 11.2
2007-04-18 08:21:16 51°11.476 2°45.284 303.8 3 278 11.3
2007-04-18 08:21:21 51°11.477 2°45.278 304.1 3 278 11.3
2007-04-18 08:21:26 51°11.477 2°45.271 304.3 3 278 11.4
2007-04-18 08:21:31 51°11.478 2°45.265 304.6 2.9 278 11.3
2007-04-18 08:21:35 51°11.478 2°45.26 304.9 2.9 279 11.3
2007-04-18 08:21:41 51°11.479 2°45.253 305.2 2.9 279 11.3
2007-04-18 08:21:45 51°11.48 2°45.248 305.5 2.9 279 11.2
2007-04-18 08:21:51 51°11.48 2°45.24 305.8 2.9 279 11.3
2007-04-18 08:21:56 51°11.481 2°45.234 306.1 2.8 280 11.3
2007-04-18 08:22:01 51°11.482 2°45.228 306.3 2.9 279 11.4
2007-04-18 08:22:06 51°11.482 2°45.221 306.5 2.8 280 11.4
2007-04-18 08:22:11 51°11.483 2°45.215 306.9 2.8 280 11.4
2007-04-18 08:22:16 51°11.484 2°45.209 307 2.8 280 11.4
2007-04-18 08:22:21 51°11.484 2°45.203 307.4 2.8 280 11.4
2007-04-18 08:22:25 51°11.485 2°45.198 307.6 2.8 279 11.4
2007-04-18 08:22:30 51°11.485 2°45.192 307.7 2.8 279 11.4
2007-04-18 08:22:36 51°11.486 2°45.184 308.1 2.8 280 11.4
2007-04-18 08:22:41 51°11.487 2°45.178 308.4 2.8 280 11.4
2007-04-18 08:22:46 51°11.488 2°45.172 308.7 2.8 280 11.4
2007-04-18 08:22:50 51°11.488 2°45.168 308.9 2.8 280 11.5
2007-04-18 08:22:55 51°11.489 2°45.162 309.1 2.8 280 11.5
2007-04-18 08:23:01 51°11.49 2°45.155 309.7 2.7 281 11.6
2007-04-18 08:23:06 51°11.491 2°45.149 311.1 2.7 282 11.6
2007-04-18 08:23:10 51°11.491 2°45.144 313 2.6 283 11.6
2007-04-18 08:23:16 51°11.493 2°45.138 314.9 2.6 285 11.6
2007-04-18 08:23:21 51°11.493 2°45.132 317.5 2.5 286 11.6
2007-04-18 08:23:26 51°11.495 2°45.127 321 2.5 288 11.5
2007-04-18 08:23:31 51°11.496 2°45.122 324.4 2.4 290 11.6
2007-04-18 08:23:35 51°11.497 2°45.118 327.5 2.3 291 11.5
2007-04-18 08:23:41 51°11.498 2°45.113 330.3 2.3 292 11.6
2007-04-18 08:23:45 51°11.499 2°45.109 334.5 2.2 295 11.6
2007-04-18 08:23:51 51°11.501 2°45.104 338 2.2 297 11.5
2007-04-18 08:23:55 51°11.502 2°45.101 341.1 2.1 300 11.5
2007-04-18 08:24:01 51°11.504 2°45.096 344.4 2.1 302 11.6
2007-04-18 08:24:06 51°11.505 2°45.093 346.9 1.9 304 11.6
2007-04-18 08:24:11 51°11.506 2°45.089 350.9 1.9 303 11.6
2007-04-18 08:24:16 51°11.508 2°45.086 353.9 1.8 303 11.6
2007-04-18 08:24:21 51°11.509 2°45.083 356.3 1.7 303 11.6
2007-04-18 08:24:25 51°11.51 2°45.081 358.3 1.6 303 11.6
2007-04-18 08:24:30 51°11.511 2°45.078 359.6 1.5 301 11.6
2007-04-18 08:24:36 51°11.513 2°45.074 0.7 1.5 300 11.6
2007-04-18 08:24:41 51°11.514 2°45.071 1.3 1.5 299 11.6
2007-04-18 08:24:46 51°11.514 2°45.069 1.7 1.5 297 11.6
2007-04-18 08:24:50 51°11.515 2°45.066 1.9 1.4 297 11.7
2007-04-18 08:24:56 51°11.516 2°45.063 1.9 1.4 295 11.7
2007-04-18 08:25:01 51°11.517 2°45.06 1.8 1.4 294 11.7
2007-04-18 08:25:06 51°11.518 2°45.057 1.4 1.4 293 11.6
2007-04-18 08:25:10 51°11.518 2°45.055 1.1 1.4 292 11.7
2007-04-18 08:25:15 51°11.519 2°45.052 0.6 1.4 292 11.7
2007-04-18 08:25:21 51°11.52 2°45.049 359.9 1.4 291 11.7
2007-04-18 08:25:26 51°11.52 2°45.046 359.2 1.4 288 11.6
2007-04-18 08:25:31 51°11.521 2°45.043 358.6 1.4 287 11.7
2007-04-18 08:25:35 51°11.522 2°45.041 357.8 1.4 286 11.7
2007-04-18 08:25:41 51°11.522 2°45.038 356.9 1.4 285 11.7
2007-04-18 08:25:46 51°11.523 2°45.035 356.1 1.3 284 11.7
2007-04-18 08:25:51 51°11.523 2°45.032 355 1.4 283 11.7
2007-04-18 08:25:55 51°11.523 2°45.029 354.3 1.4 281 11.7
2007-04-18 08:26:01 51°11.524 2°45.026 353.4 1.4 279 11.7
2007-04-18 08:26:06 51°11.524 2°45.023 352.2 1.3 281 11.7
2007-04-18 08:26:11 51°11.524 2°45.02 351.3 1.4 279 11.7
2007-04-18 08:26:16 51°11.525 2°45.017 350.5 1.3 278 11.7
2007-04-18 08:26:21 51°11.525 2°45.014 349.8 1.3 276 11.7
2007-04-18 08:26:25 51°11.525 2°45.012 349.1 1.3 274 11.7
2007-04-18 08:26:30 51°11.525 2°45.009 348.1 1.3 274 11.7
2007-04-18 08:26:36 51°11.525 2°45.005 347.1 1.3 274 11.7
2007-04-18 08:26:41 51°11.525 2°45.002 346.2 1.3 271 11.7
2007-04-18 08:26:45 51°11.526 2°45 345.3 1.3 273 11.7
2007-04-18 08:26:51 51°11.526 2°44.997 344.4 1.3 271 11.7
2007-04-18 08:26:56 51°11.526 2°44.994 343.4 1.3 271 11.7
2007-04-18 08:27:01 51°11.526 2°44.991 342.9 1.3 269 11.7
2007-04-18 08:27:06 51°11.526 2°44.988 342.2 1.3 270 11.7
2007-04-18 08:27:10 51°11.526 2°44.986 341.4 1.3 270 11.7
2007-04-18 08:27:15 51°11.526 2°44.983 340.7 1.4 280 11.7
2007-04-18 08:27:21 51°11.527 2°44.979 340.3 1.6 289 11.7
2007-04-18 08:27:26 51°11.528 2°44.975 341.1 1.7 295 11.7
2007-04-18 08:27:30 51°11.529 2°44.973 343.3 1.9 303 11.7
2007-04-18 08:27:35 51°11.531 2°44.969 346.4 2.1 312 11.7
2007-04-18 08:27:41 51°11.534 2°44.965 351.2 2.3 321 11.8
2007-04-18 08:27:46 51°11.537 2°44.963 355.4 2.4 330 11.7
2007-04-18 08:27:51 51°11.54 2°44.961 1.4 2.5 339 11.8
2007-04-18 08:27:55 51°11.543 2°44.96 7.9 2.6 348 11.8
2007-04-18 08:28:01 51°11.547 2°44.959 14.5 2.7 -999 11.8
2007-04-18 08:28:06 51°11.551 2°44.961 21.5 2.9 11 11.7
2007-04-18 08:28:11 51°11.555 2°44.963 28.9 2.9 24 11.7
2007-04-18 08:28:15 51°11.558 2°44.966 37 3 36 11.7
2007-04-18 08:28:21 51°11.561 2°44.972 45 3.1 49 11.8
2007-04-18 08:28:25 51°11.563 2°44.977 53.3 3.3 61 11.7
2007-04-18 08:28:31 51°11.565 2°44.986 61.9 3.4 74 11.7
2007-04-18 08:28:36 51°11.565 2°44.994 70.4 3.6 86 11.8
2007-04-18 08:28:41 51°11.565 2°45.002 78.8 3.8 97 11.8
2007-04-18 08:28:45 51°11.564 2°45.009 87.4 4.1 105 11.7
2007-04-18 08:28:51 51°11.561 2°45.02 96.1 4.5 115 11.7
2007-04-18 08:28:56 51°11.558 2°45.029 104 4.9 116 11.8
2007-04-18 08:29:01 51°11.555 2°45.04 107.5 5.2 114 11.8
2007-04-18 08:29:06 51°11.551 2°45.051 108.3 5.7 116 11.8
2007-04-18 08:29:10 51°11.549 2°45.061 108.7 6.2 112 11.8
2007-04-18 08:29:16 51°11.545 2°45.078 107.4 6.7 111 11.8
2007-04-18 08:29:21 51°11.542 2°45.093 105.5 7.1 107 11.7
2007-04-18 08:29:26 51°11.539 2°45.109 104 7.6 106 11.7
2007-04-18 08:29:30 51°11.537 2°45.122 102.1 8 101 11.7
2007-04-18 08:29:35 51°11.535 2°45.141 99.6 8.4 100 11.7
2007-04-18 08:29:41 51°11.534 2°45.163 97.7 8.6 97 11.6
2007-04-18 08:29:46 51°11.532 2°45.183 96.3 8.9 96 11.6
2007-04-18 08:29:51 51°11.531 2°45.203 95 9.1 96 11.6
2007-04-18 08:29:55 51°11.53 2°45.219 94.1 9.3 93 11.6
2007-04-18 08:30:01 51°11.529 2°45.244 92.7 9.5 94 11.5
2007-04-18 08:30:06 51°11.529 2°45.265 92.5 9.5 92 11.5
2007-04-18 08:30:11 51°11.528 2°45.286 92.1 9.4 93 11.5
2007-04-18 08:30:15 51°11.528 2°45.301 91.6 8.7 91 11.5
2007-04-18 08:30:21 51°11.528 2°45.323 91.3 8.1 92 11.5
2007-04-18 08:30:26 51°11.528 2°45.339 90.8 7.4 89 11.4
2007-04-18 08:30:31 51°11.528 2°45.354 89.2 6.8 88 11.4
2007-04-18 08:30:36 51°11.529 2°45.368 87 6.2 83 11.4
2007-04-18 08:30:41 51°11.53 2°45.38 84 5.6 81 11.5
2007-04-18 08:30:46 51°11.532 2°45.391 80.3 5.2 77 11.5
2007-04-18 08:30:51 51°11.534 2°45.401 77.6 4.7 72 11.5
2007-04-18 08:30:56 51°11.536 2°45.409 74.1 4.1 68 11.5
2007-04-18 08:31:01 51°11.538 2°45.416 70.6 3.5 62 11.6
2007-04-18 08:31:05 51°11.54 2°45.42 66.3 3 55 11.6
2007-04-18 08:31:11 51°11.543 2°45.426 61.8 2.6 49 11.6
2007-04-18 08:31:16 51°11.545 2°45.429 58 2.2 43 11.6
2007-04-18 08:31:21 51°11.547 2°45.432 54.1 1.9 35 11.6
2007-04-18 08:31:26 51°11.55 2°45.433 50 1.6 24 11.6
2007-04-18 08:31:30 51°11.551 2°45.434 46.3 1.4 16 11.6
2007-04-18 08:31:36 51°11.553 2°45.434 42.3 1.2 4 11.6
2007-04-18 08:31:41 51°11.555 2°45.434 38.9 1.1 348 11.6
2007-04-18 08:31:46 51°11.556 2°45.433 35.1 1 340 11.7
2007-04-18 08:31:50 51°11.557 2°45.432 31.3 1.1 333 11.7
2007-04-18 08:31:55 51°11.559 2°45.431 28.1 1.1 330 11.7
2007-04-18 08:32:01 51°11.56 2°45.429 25.1 1.2 323 11.7
2007-04-18 08:32:06 51°11.561 2°45.427 22.3 1.2 320 11.7
2007-04-18 08:32:11 51°11.562 2°45.425 19.9 1.2 316 11.7
2007-04-18 08:32:15 51°11.564 2°45.424 17.8 1.3 315 11.7
2007-04-18 08:32:21 51°11.565 2°45.421 16 1.3 311 11.7
2007-04-18 08:32:26 51°11.566 2°45.419 14.5 1.3 310 11.8
2007-04-18 08:32:31 51°11.567 2°45.417 13 1.3 308 11.7
2007-04-18 08:32:35 51°11.568 2°45.415 11.6 1.3 305 11.8
2007-04-18 08:32:41 51°11.569 2°45.412 10.3 1.4 304 11.8
2007-04-18 08:32:46 51°11.57 2°45.409 9.2 1.4 301 11.8
2007-04-18 08:32:51 51°11.571 2°45.407 7.9 1.4 299 11.8
2007-04-18 08:32:56 51°11.572 2°45.404 7 1.4 297 11.8
2007-04-18 08:33:01 51°11.573 2°45.401 5.7 1.4 296 11.8
2007-04-18 08:33:05 51°11.574 2°45.399 4.5 1.4 296 11.8
2007-04-18 08:33:11 51°11.575 2°45.395 3.4 1.4 293 11.8
2007-04-18 08:33:16 51°11.575 2°45.392 2.2 1.4 292 11.8
2007-04-18 08:33:21 51°11.576 2°45.389 1.2 1.4 290 11.8
2007-04-18 08:33:26 51°11.577 2°45.386 0.1 1.5 288 11.8
2007-04-18 08:33:31 51°11.577 2°45.383 359.1 1.5 287 11.8
2007-04-18 08:33:36 51°11.578 2°45.38 357.9 1.5 287 11.8
2007-04-18 08:33:41 51°11.578 2°45.377 356.9 1.5 285 11.8
2007-04-18 08:33:46 51°11.579 2°45.374 355.7 1.5 284 11.8
2007-04-18 08:33:50 51°11.58 2°45.371 354.7 1.5 283 11.8
2007-04-18 08:33:56 51°11.58 2°45.367 353.2 1.5 283 11.8
2007-04-18 08:34:01 51°11.58 2°45.364 352 1.5 282 11.8
2007-04-18 08:34:06 51°11.581 2°45.36 350.8 1.5 282 11.8
2007-04-18 08:34:11 51°11.581 2°45.357 349.6 1.5 280 11.8
2007-04-18 08:34:15 51°11.581 2°45.354 348.6 1.5 280 11.8
2007-04-18 08:34:21 51°11.582 2°45.35 347.8 1.5 278 11.8
2007-04-18 08:34:26 51°11.582 2°45.347 346.9 1.5 278 11.8
2007-04-18 08:34:31 51°11.583 2°45.344 346.1 1.6 277 11.8
2007-04-18 08:34:35 51°11.583 2°45.341 345.3 1.5 276 11.8
2007-04-18 08:34:41 51°11.583 2°45.337 344.5 1.5 275 11.8
2007-04-18 08:34:46 51°11.583 2°45.334 343.5 1.5 274 11.8
2007-04-18 08:34:51 51°11.583 2°45.33 342.9 1.5 273 11.9
2007-04-18 08:34:56 51°11.583 2°45.327 342.1 1.5 273 11.8
2007-04-18 08:35:01 51°11.583 2°45.324 341.4 1.5 272 11.9
2007-04-18 08:35:06 51°11.583 2°45.32 340.6 1.5 272 11.8
2007-04-18 08:35:11 51°11.583 2°45.317 339.9 1.5 272 11.9
2007-04-18 08:35:16 51°11.583 2°45.313 339.4 1.5 272 11.8
2007-04-18 08:35:21 51°11.583 2°45.31 338.9 1.5 272 11.8
2007-04-18 08:35:26 51°11.584 2°45.307 338.2 1.5 270 11.8
2007-04-18 08:35:31 51°11.584 2°45.304 337.5 1.5 271 11.9
2007-04-18 08:35:36 51°11.584 2°45.3 336.9 1.5 270 11.8
2007-04-18 08:35:41 51°11.584 2°45.297 336.5 1.5 271 11.8
2007-04-18 08:35:46 51°11.584 2°45.294 335.9 1.5 271 11.8
2007-04-18 08:35:51 51°11.584 2°45.291 335.3 1.5 271 11.8
2007-04-18 08:35:56 51°11.583 2°45.287 334.9 1.5 269 11.8
2007-04-18 08:36:01 51°11.583 2°45.284 334.5 1.4 271 11.8
2007-04-18 08:36:06 51°11.584 2°45.281 334 1.4 269 11.9
2007-04-18 08:36:11 51°11.583 2°45.278 333.7 1.4 267 11.9
2007-04-18 08:36:16 51°11.583 2°45.275 333.4 1.4 268 11.9
2007-04-18 08:36:21 51°11.583 2°45.271 333.1 1.4 267 11.9
2007-04-18 08:36:26 51°11.583 2°45.268 332.9 1.4 267 11.9
2007-04-18 08:36:31 51°11.583 2°45.265 332.7 1.4 267 11.9
2007-04-18 08:36:35 51°11.582 2°45.262 332.6 1.4 267 11.9
2007-04-18 08:36:41 51°11.582 2°45.259 332.6 1.4 268 11.9
2007-04-18 08:36:46 51°11.582 2°45.256 332.5 1.4 266 11.9
2007-04-18 08:36:51 51°11.582 2°45.253 332.4 1.4 267 11.9
2007-04-18 08:36:56 51°11.582 2°45.25 332.4 1.4 266 11.9
2007-04-18 08:37:01 51°11.582 2°45.247 332.5 1.3 266 11.9
2007-04-18 08:37:06 51°11.581 2°45.243 332.6 1.4 266 11.9
2007-04-18 08:37:11 51°11.581 2°45.24 332.6 1.4 265 11.9
2007-04-18 08:37:16 51°11.581 2°45.237 332.7 1.4 264 11.9